Overview Statistics Trail Chart Weather Telemetry Raw packets
 

This is the latest recevied weather packets stored in our database for station/object NK7E-2. If no packets are shown the sender has not sent any weather packets the latest 10 day(s).

<< 14 15 16 17 18 19 20 >>
Time Temp. Humidity Pressure Rain* Wind** Luminosity Snow
1788231615 22.22° C 80% 1026.3 hPa 0 mm - - -
1788231015 21.67° C 80% 1026.1 hPa 0 mm - - -
1788230417 22.22° C 80% 1025.9 hPa 0 mm - - -
1788229817 22.22° C 79% 1025.6 hPa 0 mm - - -
1788229217 22.22° C 78% 1025.4 hPa 0 mm - - -
1788228617 22.22° C 78% 1025.2 hPa 0 mm - - -
1788228017 22.22° C 77% 1025.4 hPa 0 mm - - -
1788227417 22.22° C 76% 1025.4 hPa 0 mm - - -
1788226817 22.22° C 77% 1025.4 hPa 0 mm - - -
1788226217 22.78° C 77% 1025.2 hPa 0 mm - - -
1788225617 22.78° C 77% 1025 hPa 0 mm - - -
1788225017 22.78° C 75% 1025 hPa 0 mm - - -
1788224417 22.78° C 75% 1024.9 hPa 0 mm - - -
1788223817 22.78° C 76% 1024.9 hPa 0 mm - - -
1788223217 23.33° C 74% 1025 hPa 0 mm - - -
1788222617 23.33° C 76% 1024.8 hPa 0 mm - - -
1788222017 22.78° C 76% 1024.9 hPa 0 mm - - -
1788221417 22.78° C 78% 1024.9 hPa 0 mm - - -
1788220817 23.33° C 76% 1024.9 hPa 0 mm - - -
1788220217 23.33° C 78% 1024.8 hPa 0 mm - - -
1788219617 22.22° C 80% 1024.7 hPa 0 mm - - -
1788219017 22.22° C 80% 1025 hPa 0 mm - - -
1788218417 21.67° C 82% 1025.2 hPa 0 mm - - -
1788217817 21.11° C 84% 1025.2 hPa 0 mm - - -
1788217217 20.56° C 85% 1025.5 hPa 0 mm - - -

* Rain latest hour (hover to see other rain measurements)
** Current wind speed in m/s (hover to see current wind gust speed)